Location: Newark
(43.0000°N, 1.6781°W)
Time: 01:08:34
(UTC+00:00)

Vanguard 1 Rocket - Pass Details

Date: 22 April 2021
Orbit: 652 x 4224 km, 34.3° (Epoch: 06 May)

Event Time Altitude Azimuth Distance (km) Brightness Sun altitude
Rises 10:09:00 0° 202° (SSW) 5,794 11.7 50.4°
Reaches altitude 10° 10:16:40 10° 175° (S) 3,819 11.2 51.4°
Maximum altitude 10:19:27 12° 158° (SSE) 3,342 11.1 51.8°
Drops below altitude 10° 10:21:50 10° 139° (SE) 3,164 11.0 52.1°
Sets 10:26:25 0° 107° (ESE) 3,587 10.9 52.6°
